Regional Weather Roundup
Issued by NWS

Home | Current Version | Previous Version | Graphics & Text | Print | Product List | Glossary On
Versions: 1 2 3 4 5 6 7 8 9 10 11 12 13 14 15 16 17 18 19 20 21 22 23 24 25 26 27 28 29 30 31 32 33 34 35 36 37 38 39 40 41 42 43 44 45 46 47 48 49 50
000
ASUS43 KDTX 272001
RWRMI
MICHIGAN HOURLY REGIONAL WEATHER ROUNDUP
NATIONAL WEATHER SERVICE DETROIT/PONTIAC MI
400 PM EDT THU APR 27 2017

NOTE: "FAIR" INDICATES FEW OR NO CLOUDS BELOW 12,000 FEET WITH NO
SIGNIFICANT WEATHER AND/OR OBSTRUCTION TO VISIBILITY.

MIZ047>049-052>055-059>063-066>070-074>076-081>083-272100-
SOUTHEAST LOWER MICHIGAN

CITY           SKY/WX    TMP DP  RH WIND       PRES   REMARKS
ADRIAN         PTSUNNY   62  48  60 W20G28    29.63R
ALMA           CLOUDY    53  42  66 SW22G31   29.58R
ANN ARBOR      SUNNY     65  49  56 SW23G31   29.57R
BAD AXE        CLOUDY    68  52  55 SW18G32   29.47S
CARO           PTSUNNY   65  51  60 W16G22    29.50R
DETROIT CITY   CLOUDY    68  51  54 SW24G37   29.54R
DETROIT        PTSUNNY   69  50  50 SW28      29.57R
FLINT          PTSUNNY   66  48  52 W17G35    29.53R
GROSSE ILE     MOSUNNY   68  51  54 SW21G32   29.55S
HILLSDALE      CLOUDY    54  43  66 SW16G29   29.63R
HOWELL         CLOUDY    62  45  53 W15G24    29.56R

CITY           SKY/WX    TMP DP  RH WIND       PRES   REMARKS
JACKSON        CLOUDY    58  44  60 SW21G33   29.60R
LAMBERTVILLE   MOSUNNY   65  50  58 SW17G26   29.61R
LANSING        CLOUDY    59  42  53 SW22G28   29.59R
LAPEER         CLOUDY    69  51  53 W17G23    29.51R
MASON          CLOUDY    59  47  64 W15G22    29.59R
MONROE         MOSUNNY   66  51  59 W22G28    29.58R
MT. CLEMENS    PTSUNNY   70  56  61 SW18G28   29.52S
PONTIAC        PTSUNNY   68  49  50 SW22G30   29.52R
PORT HOPE        N/A     70  53  54 S16G29    29.43R
PORT HURON     CLOUDY    64  55  72 SW13      29.53S
TRI CITIES     SUNNY     61  45  55 SW24G38   29.53R
MIDLAND        FAIR      61  41  48 SW21G33   29.53R
TROY           PTSUNNY   71  47  42 SW25G35   29.55S
SAGINAW HB     SUNNY     63  43  48 SW26G32   29.52R
$$
MIZ043>046-050>051-056>058-064>065-071>073-077>080-272100-
SOUTHWEST LOWER MICHIGAN

CITY           SKY/WX    TMP DP  RH WIND       PRES   REMARKS
BATTLE CREEK   CLOUDY    53  44  71 SW18G25   29.63R
BENTON HARBOR  CLOUDY    47  38  71 W18G29    29.68R
BIG RAPIDS     CLOUDY    46  38  71 SW16G31   29.56R
COLDWATER      CLOUDY    53  43  68 SW16G28   29.65R
FREMONT        CLOUDY    46  37  70 SW20G31   29.59R
HOLLAND        CLOUDY    47  39  74 SW22G32   29.65R
GRAND RAPIDS   CLOUDY    49  42  77 SW25      29.61R
IONIA          CLOUDY    51  41  67 SW21G29   29.60R
KALAMAZOO      CLOUDY    51  41  68 W10       29.64R
LUDINGTON      CLOUDY    43  38  82 SW21G26   29.56R
MARSHALL       CLOUDY    55  43  63 SW18G25   29.62R
MOUNT PLEASANT CLOUDY    53  40  61 SW21G30   29.55R
MUSKEGON       CLOUDY    47  39  74 SW15G26   29.62R
SOUTH HAVEN    CLOUDY    46  38  74 SW17G26   29.67R
$$
MIZ016>042-272100-
NORTHERN LOWER MICHIGAN

CITY           SKY/WX    TMP DP  RH WIND       PRES   REMARKS
ALPENA         CLOUDY    71  55  56 S14G25    29.37S
BEAVER ISLAND  CLOUDY    44  37  78 SW21G32   29.43R
BELLAIRE       CLOUDY    51  41  67 SW12G26   29.47R
CADILLAC       CLOUDY    47  39  73 S21G26    29.49R
CHARLEVOIX     CLOUDY    50  40  68 SW15G29   29.47R
FRANKFORT      CLOUDY    42  36  78 SW16G26   29.51R
GAYLORD        MOSUNNY   60  39  45 SW28G40   29.42R
GRAYLING       CLOUDY    55  40  56 SW14G29   29.47R
HARBOR SPRINGS PTSUNNY   50  40  70 W12G22    29.42R
HOUGHTON LAKE  PTSUNNY   55  41  59 SW18G30   29.49R
MANISTEE       CLOUDY    43  36  76 SW17G29   29.54R
OSCODA         PTSUNNY   69  55  61 SW16G24   29.40S
PELLSTON       SUNNY     56  41  57 SW17G36   29.39R
ROGERS CITY    CLOUDY    70  52  52 S18G25    29.35R
TRAVERSE CITY  CLOUDY    48  40  73 SW9G21    29.46R
$$
MIZ007>008-015-272100-
EASTERN UPPER MICHIGAN

CITY           SKY/WX    TMP DP  RH WIND       PRES   REMARKS
KINROSS        MOSUNNY   57  45  64 SW22G37   29.35R
MACKINAC ISLAN MOSUNNY   46  40  79 W22G38    29.37R
NEWBERRY       PTSUNNY   47  42  80 S29G52    29.32R
S. S. MARIE    PTSUNNY   65  50  58 SW28G40   29.32R
MUNISING         N/A     34  32  92 NW14G22   29.39R WCI  25
$$
MIZ004>006-011>014-085-272100-
CENTRAL UPPER MICHIGAN

CITY           SKY/WX    TMP DP  RH WIND       PRES   REMARKS
MANISTIQUE     CLOUDY    37  36  98 W14       29.38R FOG     WCI  28
ESCANABA       LGT RAIN  39  37  92 W9        29.42R FOG     WCI  33
MENOMINEE      LGT RAIN  38  35  89 W10G22    29.47R WCI  31
SAWYER-GWINN   LGT SNOW  32  32 100 W12       29.37R WCI  23
$$
MIZ001>003-009>011-084-272100-
WESTERN UPPER MICHIGAN

CITY           SKY/WX    TMP DP  RH WIND       PRES   REMARKS
IRON MOUNTAIN  LGT SNOW  32  27  81 W15G23    29.43R WCI  22
HOUGHTON       LGT SNOW  27  22  81 W18       29.38S VSB 3/4 WCI  14
COPPER HARBOR    N/A     31  29  92 N16G25    29.35  WCI  20
IRONWOOD       LGT SNOW  27  24  89 W14       29.49R FOG     WCI  16
$$

ABBREVIATIONS USED IN REMARKS
   TC - TEMPERATURE IN CELSIUS
  WCI - WIND CHILL INDEX
   HX - HEAT INDEX
  VSB - VISIBILITY





USA.gov is the U.S. government's official web portal to all federal, state and local government web resources and services.